FW0776 Weather Reports


time (UTC)temp
F
wind
direction
speed
knots
gust
knots
rain 1hr
in
rain 24hr
in
rain mn
in
humidity
%
barometer
mb
20260906162509 86 292 0.0 1.7 0.00 0.20 0.01 83 1008.8
20260906162004 85 292 0.0 2.6 0.00 0.20 0.01 83 1008.9
20260906161503 85 292 0.0 0.0 0.00 0.20 0.01 84 1009.0
20260906161001 83 292 0.0 0.0 0.00 0.20 0.01 85 1009.1
20260906160600 83 292 0.0 0.0 0.00 0.20 0.01 82 1009.1
20260906160059 83 292 0.0 0.0 0.00 0.20 0.01 84 1009.2
20260906155557 83 292 0.0 0.9 0.00 0.20 0.01 84 1009.2
20260906155057 83 292 0.0 0.9 0.00 0.20 0.01 84 1009.2
20260906154555 83 292 0.0 0.0 0.00 0.20 0.01 86 1009.2
20260906154053 83 292 0.0 0.0 0.00 0.20 0.01 85 1009.2
20260906153555 83 292 0.0 0.9 0.00 0.20 0.01 84 1009.2
20260906153051 83 292 0.0 2.6 0.00 0.20 0.01 87 1009.2
20260906152552 82 292 0.0 2.6 0.00 0.20 0.01 85 1009.1
20260906152048 82 292 0.0 0.0 0.00 0.20 0.01 89 1009.0
20260906151547 82 292 0.0 0.0 0.00 0.20 0.01 89 1009.1
20260906151045 81 292 0.0 0.0 0.00 0.20 0.01 91 1009.2
20260906150544 81 292 0.0 0.0 0.00 0.20 0.01 91 1009.2
20260906150054 80 292 0.0 0.0 0.00 0.20 0.01 93 1009.2
20260906145541 78 292 0.0 0.0 0.00 0.20 0.01 96 1009.2
20260906145040 77 195 0.0 0.0 0.00 0.20 0.01 97 1009.2
20260906144555 77 195 0.0 0.0 0.00 0.20 0.01 97 1009.1
20260906144038 77 195 0.0 0.0 0.00 0.20 0.01 97 1009.1
20260906143538 76 195 0.0 0.0 0.00 0.20 0.01 97 1009.2
20260906143039 76 195 0.0 0.0 0.00 0.20 0.01 97 1009.2
20260906142536 76 195 0.0 0.0 0.00 0.20 0.01 97 1009.1
20260906142035 76 195 0.0 0.0 0.00 0.20 0.01 97 1009.2
20260906141542 75 195 0.0 0.0 0.00 0.20 0.01 97 1009.3
20260906141036 75 195 0.0 0.0 0.00 0.20 0.01 98 1009.4
20260906140531 75 195 0.0 0.0 0.00 0.20 0.01 97 1009.4
20260906140031 74 195 0.0 0.0 0.00 0.20 0.01 97 1009.3
20260906135531 74 195 0.0 0.0 0.00 0.20 0.01 98 1009.2
20260906135031 74 195 0.0 0.0 0.00 0.20 0.01 98 1009.2
20260906134529 74 195 0.0 0.0 0.00 0.20 0.01 98 1009.2
20260906134029 74 195 0.0 0.0 0.00 0.20 0.01 98 1009.3
20260906133527 73 195 0.0 0.0 0.00 0.20 0.01 98 1009.3
20260906133025 73 195 0.0 0.0 0.00 0.20 0.01 98 1009.3
20260906132526 73 195 0.0 0.0 0.00 0.20 0.01 97 1009.3
20260906132031 73 195 0.0 0.0 0.00 0.20 0.01 98 1009.3
20260906131527 73 195 0.0 0.0 0.00 0.20 0.01 98 1009.3
20260906131022 73 195 0.0 0.0 0.00 0.20 0.01 98 1009.1
20260906130522 73 195 0.0 0.0 0.00 0.20 0.01 98 1009.1
20260906130035 72 195 0.0 0.0 0.00 0.20 0.01 98 1009.1
20260906125522 72 195 0.0 0.0 0.00 0.20 0.01 97 1009.2
20260906125023 71 195 0.0 0.0 0.00 0.20 0.01 98 1009.1
20260906124520 71 195 0.0 0.0 0.00 0.20 0.01 97 1009.0
20260906124020 71 195 0.0 0.0 0.00 0.20 0.01 97 1008.9
20260906123520 71 195 0.0 0.0 0.00 0.20 0.01 97 1009.0
20260906123019 71 195 0.0 0.0 0.00 0.20 0.01 97 1008.9
20260906122519 71 195 0.0 0.0 0.00 0.20 0.01 97 1008.8
20260906122019 71 195 0.0 0.0 0.00 0.20 0.01 97 1008.8
20260906121519 71 195 0.0 0.0 0.00 0.20 0.01 97 1008.9
20260906121019 71 195 0.0 0.0 0.00 0.20 0.01 97 1008.9
20260906120520 71 195 0.0 0.0 0.00 0.20 0.01 97 1008.8
20260906120019 71 195 0.0 0.0 0.00 0.20 0.01 97 1008.7
20260906115521 70 195 0.0 0.0 0.00 0.22 0.01 97 1008.7
20260906115019 70 195 0.0 0.0 0.00 0.22 0.01 97 1008.6
20260906114532 70 195 0.0 0.0 0.00 0.22 0.01 97 1008.6
20260906114021 70 195 0.0 0.0 0.00 0.22 0.01 97 1008.6
20260906113519 70 195 0.0 0.0 0.00 0.22 0.01 97 1008.6
20260906113017 70 195 0.0 0.0 0.00 0.22 0.01 97 1008.6
20260906112517 70 195 0.0 0.0 0.00 0.22 0.01 97 1008.6
20260906112017 70 195 0.0 0.0 0.00 0.22 0.01 97 1008.6
20260906111517 70 195 0.0 0.0 0.00 0.22 0.01 97 1008.7
20260906111016 70 195 0.0 0.0 0.00 0.22 0.01 97 1008.7
20260906110516 70 195 0.0 0.0 0.00 0.22 0.01 97 1008.7
20260906110021 70 195 0.0 0.0 0.00 0.22 0.01 97 1008.7
20260906105516 70 195 0.0 0.0 0.00 0.24 0.01 97 1008.7
20260906105018 70 195 0.0 0.0 0.00 0.24 0.01 97 1008.6
20260906104519 70 195 0.0 0.0 0.00 0.24 0.01 97 1008.6
20260906104015 70 195 0.0 0.0 0.00 0.24 0.01 97 1008.6
20260906103515 70 195 0.0 0.0 0.00 0.24 0.01 97 1008.5
20260906103014 70 195 0.0 0.0 0.00 0.24 0.01 97 1008.5
20260906102514 70 195 0.0 0.0 0.00 0.24 0.01 97 1008.6
20260906102016 70 195 0.0 0.0 0.00 0.24 0.01 97 1008.6
20260906101514 70 195 0.0 0.0 0.00 0.24 0.01 97 1008.6
20260906101015 70 195 0.0 0.0 0.00 0.24 0.01 97 1008.4
20260906100513 70 195 0.0 0.0 0.00 0.24 0.01 97 1008.4
20260906100012 70 195 0.0 0.0 0.00 0.24 0.01 97 1008.4
20260906095512 70 195 0.0 0.0 0.00 0.24 0.01 97 1008.4
20260906095013 70 195 0.0 0.0 0.00 0.24 0.01 97 1008.5
20260906094525 70 195 0.0 0.0 0.00 0.24 0.01 97 1008.6
20260906094012 70 195 0.0 0.0 0.00 0.24 0.01 97 1008.6
20260906093511 70 195 0.0 0.0 0.00 0.24 0.01 97 1008.5
20260906093013 70 195 0.0 0.0 0.00 0.24 0.01 97 1008.4
20260906092510 71 195 0.0 0.0 0.00 0.24 0.01 97 1008.4
20260906092014 71 195 0.0 0.0 0.00 0.24 0.01 97 1008.5
20260906091509 71 195 0.0 0.0 0.00 0.24 0.01 97 1008.4
20260906091011 71 195 0.0 0.0 0.00 0.24 0.01 97 1008.4
20260906090513 71 195 0.0 0.0 0.00 0.24 0.01 97 1008.4
20260906090010 71 195 0.0 0.0 0.00 0.24 0.01 97 1008.4
20260906085510 71 195 0.0 0.0 0.00 0.28 0.01 97 1008.5
20260906085009 71 195 0.0 0.0 0.00 0.28 0.01 97 1008.5
20260906084512 71 195 0.0 0.0 0.00 0.28 0.01 97 1008.5
20260906084013 71 195 0.0 0.0 0.00 0.28 0.01 97 1008.4
20260906083508 71 195 0.0 0.0 0.00 0.28 0.01 97 1008.4
20260906083007 71 195 0.0 0.0 0.00 0.28 0.01 97 1008.4
20260906082507 71 195 0.0 0.0 0.00 0.28 0.01 97 1008.3
20260906082009 70 195 0.0 0.0 0.00 0.28 0.01 97 1008.3
20260906081522 70 195 0.0 0.0 0.00 0.28 0.01 97 1008.2
20260906081007 70 195 0.0 0.0 0.00 0.28 0.01 97 1008.3
20260906080507 70 195 0.0 0.0 0.00 0.28 0.01 97 1008.3
20260906080005 70 195 0.0 0.0 0.00 0.28 0.01 97 1008.3
20260906075504 71 195 0.0 0.0 0.00 0.28 0.01 97 1008.2
20260906075004 71 195 0.0 0.0 0.00 0.28 0.01 97 1008.2
20260906074504 70 195 0.0 0.0 0.00 0.28 0.01 97 1008.3
20260906074003 70 195 0.0 0.0 0.00 0.28 0.01 97 1008.3
20260906073502 70 195 0.0 0.0 0.00 0.28 0.01 97 1008.3
20260906073001 70 195 0.0 0.0 0.00 0.28 0.01 97 1008.3
20260906072502 70 195 0.0 0.0 0.00 0.28 0.01 97 1008.2
20260906072002 70 195 0.0 0.0 0.00 0.28 0.01 97 1008.2
20260906071502 70 195 0.0 0.0 0.00 0.28 0.01 97 1008.4
20260906071104 70 195 0.0 0.0 0.00 0.28 0.01 97 1008.4
20260906070600 70 195 0.0 0.0 0.00 0.28 0.01 97 1008.5
20260906065600 71 195 0.0 0.0 0.00 0.28 0.01 97 1008.3
20260906065058 71 195 0.0 0.0 0.00 0.28 0.01 97 1008.3
20260906064557 71 195 0.0 0.0 0.00 0.28 0.01 97 1008.3
20260906064057 71 195 0.0 0.0 0.00 0.28 0.01 97 1008.2
20260906063557 71 195 0.0 0.0 0.00 0.28 0.01 97 1008.3
20260906063055 71 195 0.0 0.0 0.00 0.28 0.01 97 1008.4
20260906062553 71 195 0.0 0.0 0.00 0.28 0.01 97 1008.3
20260906062057 71 195 0.0 0.0 0.00 0.28 0.01 97 1008.4
20260906061552 71 195 0.0 0.0 0.00 0.28 0.01 97 1008.5
20260906061051 71 195 0.0 0.0 0.00 0.28 0.01 97 1008.5
20260906060552 71 195 0.0 0.0 0.00 0.28 0.01 97 1008.6
20260906060049 71 195 0.0 0.0 0.00 0.28 0.01 97 1008.8
20260906055551 71 195 0.0 0.0 0.00 0.28 0.01 97 1009.0
20260906055048 71 195 0.0 0.0 0.00 0.28 0.01 97 1009.0
20260906054547 71 195 0.0 0.0 0.00 0.28 0.01 97 1009.1
20260906054049 71 195 0.0 0.0 0.00 0.28 0.01 97 1009.2
20260906053544 71 195 0.0 0.0 0.00 0.28 0.01 97 1009.2
20260906053043 71 195 0.0 0.0 0.00 0.28 0.01 97 1009.2
20260906052545 71 195 0.0 0.0 0.01 0.28 0.01 97 1009.2
20260906052044 71 195 0.0 0.0 0.01 0.28 0.01 97 1009.2
20260906051542 71 195 0.0 0.0 0.01 0.28 0.01 97 1009.1
20260906051047 71 195 0.0 0.0 0.01 0.28 0.01 97 1009.2
20260906050543 72 195 0.0 0.0 0.01 0.28 0.01 97 1009.2
20260906050041 72 195 0.0 0.0 0.01 0.28 0.01 97 1009.3
20260906045540 72 195 0.0 0.0 0.01 0.32 0.01 97 1009.3
20260906045039 72 195 0.0 0.0 0.01 0.32 0.01 97 1009.3
20260906044543 71 195 0.0 0.0 0.01 0.32 0.01 97 1009.2
20260906044039 71 195 0.0 0.0 0.01 0.32 0.01 96 1009.3
20260906043537 71 195 0.0 0.0 0.01 0.32 0.01 96 1009.2
20260906043043 72 195 0.0 0.0 0.01 0.32 0.01 96 1009.2
20260906042535 72 195 0.0 0.0 0.00 0.31 0.00 96 1009.1
20260906042035 72 195 0.0 0.0 0.00 0.31 0.00 96 1009.1
20260906041537 72 195 0.0 0.0 0.00 0.31 0.00 97 1009.1
20260906041035 72 195 0.0 0.0 0.00 0.31 0.00 97 1009.1
20260906040535 72 195 0.0 0.0 0.00 0.31 0.00 96 1009.1
20260906040035 72 195 0.0 0.0 0.00 0.31 0.00 96 1009.1
20260906035533 72 195 0.0 0.0 0.00 0.31 0.31 96 1009.0
20260906035031 72 195 0.0 0.0 0.00 0.31 0.31 96 1009.1
20260906034531 72 195 0.0 0.0 0.00 0.31 0.31 96 1009.1
20260906034030 72 195 0.0 0.0 0.00 0.31 0.31 96 1009.1
20260906033530 72 195 0.0 0.0 0.00 0.31 0.31 96 1009.1
20260906033031 72 195 0.0 0.0 0.00 0.31 0.31 96 1009.2
20260906032529 72 195 0.0 0.0 0.00 0.31 0.31 96 1009.3
20260906032030 72 195 0.0 0.0 0.00 0.31 0.31 96 1009.3
20260906031543 72 195 0.0 0.0 0.00 0.31 0.31 96 1009.2
20260906031029 72 195 0.0 0.0 0.00 0.31 0.31 96 1009.6
20260906030529 72 195 0.0 0.0 0.00 0.31 0.31 96 1009.6
20260906030029 72 195 0.0 0.0 0.00 0.31 0.31 96 1009.7
20260906025534 72 195 0.0 0.0 0.00 0.31 0.31 96 1009.8
20260906025029 72 195 0.0 0.0 0.00 0.31 0.31 96 1009.8
20260906024529 72 195 0.0 0.0 0.00 0.31 0.31 96 1009.7
20260906024032 72 195 0.0 0.0 0.00 0.31 0.31 96 1009.5
20260906023529 72 195 0.0 0.0 0.00 0.31 0.31 96 1009.6
20260906023028 73 195 0.0 0.0 0.00 0.31 0.31 96 1009.5
20260906022528 73 195 0.0 0.0 0.00 0.31 0.31 96 1009.5
20260906022028 73 195 0.0 0.0 0.00 0.31 0.31 96 1009.5
20260906021528 73 195 0.0 0.0 0.00 0.31 0.31 96 1009.3
20260906021027 73 195 0.0 0.0 0.00 0.31 0.31 96 1009.4
20260906020527 73 195 0.0 0.0 0.00 0.31 0.31 96 1009.3
20260906020032 73 195 0.0 0.0 0.00 0.31 0.31 96 1009.3
20260906015527 73 195 0.0 0.0 0.00 0.31 0.31 96 1009.4
20260906015027 73 195 0.0 0.0 0.00 0.31 0.31 96 1009.4
20260906014530 73 195 0.0 0.0 0.00 0.31 0.31 96 1009.3
20260906014029 73 195 0.0 0.0 0.00 0.31 0.31 96 1009.3
20260906013527 73 195 0.0 0.0 0.00 0.31 0.31 96 1009.4
20260906013026 73 195 0.0 0.0 0.00 0.31 0.31 96 1009.4
20260906012525 73 195 0.0 0.0 0.00 0.31 0.31 96 1009.4
20260906012025 73 195 0.0 0.9 0.00 0.31 0.31 96 1009.3
20260906011526 73 195 0.0 1.7 0.00 0.31 0.31 96 1009.1
20260906011030 73 195 0.0 0.0 0.00 0.31 0.31 96 1008.9
20260906010525 73 195 0.0 1.7 0.00 0.31 0.31 96 1008.8
20260906010025 73 195 0.0 1.7 0.00 0.31 0.31 96 1008.7
20260906005525 73 195 0.0 0.9 0.00 0.31 0.31 96 1008.4
20260906005025 73 195 0.0 0.9 0.00 0.31 0.31 95 1008.4
20260906004525 73 195 0.0 0.0 0.00 0.31 0.31 95 1008.2
20260906004024 73 195 0.0 0.0 0.00 0.31 0.31 95 1008.1
20260906003524 73 195 0.0 0.0 0.00 0.31 0.31 95 1008.0
20260906003027 73 195 0.0 0.0 0.00 0.31 0.31 95 1007.9
20260906002523 74 195 0.0 0.0 0.00 0.31 0.31 95 1007.8
20260906002024 74 195 0.0 0.0 0.00 0.31 0.31 95 1007.9
20260906001523 74 195 0.0 0.0 0.00 0.31 0.31 95 1007.7
20260906001023 74 195 0.0 0.0 0.00 0.31 0.31 95 1007.5
20260906000523 74 195 0.0 0.0 0.00 0.31 0.31 95 1007.5
20260906000023 74 195 0.0 0.0 0.00 0.31 0.31 95 1007.2
20260905235523 74 195 0.0 0.0 0.00 0.31 0.31 95 1007.0
20260905235023 75 195 0.0 0.0 0.00 0.31 0.31 95 1007.0
20260905234523 75 195 0.0 0.0 0.00 0.31 0.31 95 1007.0
20260905234031 75 195 0.0 0.0 0.00 0.31 0.31 94 1006.9
20260905233029 75 195 0.0 0.0 0.03 0.31 0.31 94 1007.0
20260905232521 75 195 0.0 0.0 0.06 0.31 0.31 94 1007.3
20260905232021 74 195 0.0 0.0 0.09 0.31 0.31 94 1007.3
20260905231521 74 195 0.0 0.0 0.12 0.31 0.31 94 1007.2
20260905231021 74 195 0.0 0.0 0.18 0.31 0.31 93 1007.4
20260905230524 74 195 0.0 0.0 0.19 0.31 0.31 93 1007.3
20260905230021 74 195 0.0 0.0 0.19 0.31 0.31 93 1007.4
20260905225520 74 195 0.0 1.7 0.19 0.31 0.31 93 1007.4
20260905225021 74 195 0.0 3.5 0.19 0.31 0.31 93 1007.6
20260905224520 74 195 0.0 3.5 0.19 0.31 0.31 92 1008.1
20260905224021 74 196 0.0 4.3 0.19 0.31 0.31 91 1008.5
20260905223520 75 196 0.9 4.3 0.17 0.28 0.28 90 1008.9
20260905223032 76 200 0.9 3.5 0.16 0.28 0.28 89 1009.1
20260905222520 77 203 0.0 0.9 0.13 0.25 0.25 87 1009.0
20260905222119 78 203 0.0 0.9 0.10 0.22 0.22 84 1009.4
20260905221535 81 203 0.0 5.2 0.07 0.19 0.19 76 1009.6
20260905221019 85 202 1.7 9.6 0.01 0.13 0.13 71 1009.1
20260905220518 87 211 1.7 9.6 0.00 0.12 0.12 63 1009.0
20260905220018 89 205 0.9 8.7 0.00 0.12 0.12 59 1008.4
20260905215524 90 186 0.0 6.1 0.00 0.12 0.12 60 1008.0
20260905215017 92 186 0.0 6.1 0.00 0.12 0.12 57 1007.0
20260905214517 93 173 0.9 5.2 0.00 0.12 0.12 56 1006.8
20260905214018 94 166 0.0 0.0 0.00 0.12 0.12 53 1006.8
20260905213519 95 166 0.0 0.0 0.00 0.12 0.12 51 1006.6
20260905213016 96 166 0.0 0.0 0.00 0.12 0.12 51 1006.4
20260905212516 97 166 0.0 0.0 0.00 0.12 0.12 50 1006.5
20260905212021 98 166 0.0 0.0 0.00 0.12 0.12 53 1006.6
20260905211534 97 166 0.0 0.0 0.00 0.12 0.12 48 1006.6
20260905211015 97 166 0.0 0.0 0.00 0.12 0.12 48 1006.6
20260905210515 97 166 0.0 0.0 0.00 0.12 0.12 45 1006.6
20260905210013 97 166 0.0 0.0 0.00 0.12 0.12 49 1006.8
20260905205513 97 166 0.0 0.0 0.00 0.12 0.12 53 1006.7
20260905205012 97 166 0.0 0.0 0.00 0.12 0.12 47 1006.9
20260905204511 97 166 0.0 0.0 0.00 0.12 0.12 45 1006.9
20260905204010 98 166 0.0 0.0 0.00 0.12 0.12 50 1007.0
20260905203511 98 166 0.0 0.0 0.00 0.12 0.12 50 1007.0
20260905203008 98 166 0.0 0.0 0.00 0.12 0.12 49 1007.0
20260905202505 98 166 0.0 0.0 0.00 0.12 0.12 53 1007.2
20260905202004 97 166 0.0 0.0 0.00 0.12 0.12 51 1007.2
20260905201504 96 166 0.0 0.9 0.00 0.12 0.12 48 1007.3
20260905201002 96 166 0.0 0.9 0.00 0.12 0.12 56 1007.3
20260905200501 97 166 0.0 0.0 0.00 0.12 0.12 52 1007.3
20260905200137 96 166 0.0 0.0 0.00 0.12 0.12 48 1007.4
20260905195601 96 166 0.0 0.0 0.00 0.12 0.12 54 1007.4
20260905195058 96 166 0.0 0.0 0.00 0.12 0.12 49 1007.4
20260905194601 96 166 0.0 0.0 0.00 0.12 0.12 52 1007.4
20260905194056 96 166 0.0 0.0 0.00 0.12 0.12 56 1007.5
20260905193556 95 166 0.0 0.0 0.00 0.12 0.12 52 1007.6
20260905193053 95 166 0.0 0.0 0.00 0.12 0.12 52 1007.6
20260905192552 96 166 0.0 0.0 0.00 0.12 0.12 53 1007.7
20260905192054 96 166 0.0 0.0 0.00 0.12 0.12 52 1007.7
20260905191550 95 166 0.0 2.6 0.00 0.12 0.12 59 1007.8
20260905191050 95 166 0.0 4.3 0.00 0.12 0.12 56 1008.0
20260905190547 94 168 0.0 2.6 0.00 0.12 0.12 55 1008.0
20260905190046 95 168 0.0 3.5 0.00 0.12 0.12 52 1008.1
20260905185545 96 168 0.0 0.0 0.00 0.12 0.12 59 1008.1
20260905185048 95 168 0.0 0.0 0.00 0.12 0.12 53 1008.2
20260905184542 95 168 0.0 0.0 0.00 0.12 0.12 55 1008.2
20260905184040 94 168 0.0 0.0 0.00 0.12 0.12 58 1008.2
20260905183539 93 168 0.0 0.0 0.00 0.12 0.12 58 1008.4
20260905183037 93 168 0.0 0.0 0.00 0.12 0.12 55 1008.4
20260905182539 93 168 0.0 0.0 0.00 0.12 0.12 58 1008.5
20260905182036 93 168 0.0 0.0 0.00 0.12 0.12 59 1008.6
20260905181535 94 168 0.0 0.0 0.00 0.12 0.12 57 1008.6
20260905181034 94 169 0.0 0.0 0.00 0.12 0.12 56 1008.6
20260905180533 93 168 0.0 0.0 0.00 0.12 0.12 54 1008.7
20260905180035 93 168 0.0 0.0 0.00 0.12 0.12 56 1008.8
20260905175530 94 168 0.0 0.0 0.00 0.12 0.12 59 1008.8
20260905175029 93 168 0.0 0.0 0.00 0.12 0.12 55 1008.8
20260905174529 93 168 0.0 0.0 0.00 0.12 0.12 56 1008.9
20260905174026 92 169 0.0 0.0 0.00 0.12 0.12 60 1009.0
20260905173525 93 168 0.0 0.0 0.00 0.12 0.12 59 1009.1
20260905173024 92 168 0.0 0.0 0.00 0.12 0.12 61 1009.1
20260905172521 93 169 0.0 0.0 0.00 0.12 0.12 59 1009.2
20260905172022 93 168 0.0 0.0 0.00 0.12 0.12 62 1009.3
20260905171535 93 168 0.0 0.0 0.00 0.12 0.12 62 1009.3
20260905171021 93 169 0.0 0.9 0.00 0.12 0.12 65 1009.4
20260905170515 93 169 0.0 4.3 0.00 0.12 0.12 62 1009.4
20260905170014 93 169 0.9 4.3 0.00 0.12 0.12 59 1009.5
20260905165513 93 168 0.0 0.0 0.00 0.12 0.12 67 1009.5
20260905165012 92 168 0.0 0.0 0.00 0.12 0.12 63 1009.5
20260905164511 92 168 0.0 0.0 0.00 0.12 0.12 61 1009.6
20260905164009 92 168 0.0 0.0 0.00 0.12 0.12 67 1009.6
20260905163507 91 168 0.0 0.0 0.00 0.12 0.12 64 1009.6
20260905163109 91 168 0.0 0.0 0.00 0.12 0.12 66 1009.8